Weather History for Palestine, TX

Change the Weather History Date:

Sunday, December 30, 2012

  Actual Average (KTYR) Record (KTYR)
Temperature  
Mean Temperature 34 °F 47 °F  
Max Temperature 46 °F 56 °F 83 °F (1951)
Min Temperature 23 °F 37 °F 2 °F (1983)
Degree Days  
Heating Degree Days 30 18  
Month to date heating degree days 508  
Since 1 July heating degree days 882  
Cooling Degree Days 0 0  
Month to date cooling degree days 0  
Year to date cooling degree days 2411  
Moisture  
Dew Point 24 °F    
Average Humidity 64    
Maximum Humidity 94    
Minimum Humidity 39    
Precipitation  
Precipitation 0.00 in 0.14 in 2.67 in (1952)
Month to date precipitation 4.11  
Year to date precipitation 45.66  
Snow  
Snow 0.00 in - - ()
Month to date snowfall  
Since 1 July snowfall  
Snow Depth -    
Sea Level Pressure  
Sea Level Pressure 30.41 in    
Wind  
Wind Speed 3 mph (ESE)    
Max Wind Speed 10 mph    
Max Gust Speed 16 mph    
Visibility 10 miles    
Events      
T = Trace of Precipitation, MM = Missing Value Source: NWS Daily Summary

Daily Weather History Graph

Daily Weather History Graph

Search for Another Location

Airport:

Trip Planner

Search our weather history database for the weather conditions in past years. The results will help you decide how hot, cold, wet, or windy it might be!

Date:

Astronomy

Dec. 30, 2012 Rise Set
Actual Time 7:22 AM CST 5:28 PM CST
Civil Twilight 6:55 AM CST 5:55 PM CST
Nautical Twilight 6:25 AM CST 6:26 PM CST
Astronomical Twilight 5:55 AM CST 6:55 PM CST
Moon 7:51 PM CST 8:40 AM CST
Length of Visible Light 11h 00m
Length of Day
10h 06m
Waning Gibbous, 95% of the Moon is Illuminated
Dec 30
Waning Gibbous
Jan 4
Last Quarter
Jan 11
New
Jan 18
First Quarter
Jan 26
Full

Hourly Weather History & Observations

Time (CST) Temp. Windchill Dew Point Humidity Pressure Visibility Wind Dir Wind Speed Gust Speed Precip Events Conditions
12:35 AM 27.3 °F - 23.5 °F 86% 30.47 in 10.0 mi Calm Calm - N/A   Clear
12:55 AM 26.1 °F - 23.0 °F 88% 30.48 in 10.0 mi Calm Calm - N/A   Clear
1:15 AM 26.4 °F - 23.9 °F 90% 30.48 in 10.0 mi Calm Calm - N/A   Clear
1:35 AM 26.4 °F - 23.9 °F 90% 30.48 in 10.0 mi Calm Calm - N/A   Clear
1:55 AM 27.5 °F - 25.3 °F 92% 30.48 in 10.0 mi Calm Calm - N/A   Clear
2:15 AM 25.7 °F - 23.4 °F 91% 30.47 in 10.0 mi Calm Calm - N/A   Clear
2:35 AM 26.6 °F - 24.6 °F 92% 30.48 in 10.0 mi Calm Calm - N/A   Clear
2:55 AM 25.9 °F - 23.5 °F 91% 30.48 in 10.0 mi Calm Calm - N/A   Clear
3:15 AM 25.5 °F - 23.0 °F 90% 30.48 in 10.0 mi Calm Calm - N/A   Clear
3:35 AM 24.8 °F - 23.0 °F 93% 30.48 in 10.0 mi Calm Calm - N/A   Clear
3:55 AM 25.3 °F - 23.7 °F 94% 30.48 in 10.0 mi Calm Calm - N/A   Clear
4:15 AM 24.6 °F - 23.0 °F 94% 30.47 in 10.0 mi Calm Calm - N/A   Clear
4:35 AM 24.8 °F - 22.5 °F 91% 30.47 in 10.0 mi Calm Calm - N/A   Clear
4:55 AM 23.7 °F - 21.9 °F 93% 30.46 in 10.0 mi Calm Calm - N/A   Clear
5:15 AM 26.2 °F - 24.4 °F 93% 30.48 in 10.0 mi Calm Calm - N/A   Clear
5:35 AM 24.8 °F - 21.9 °F 89% 30.47 in 10.0 mi Calm Calm - N/A   Clear
5:55 AM 23.7 °F - 21.7 °F 92% 30.47 in 10.0 mi Calm Calm - N/A   Clear
6:15 AM 23.7 °F 19.3 °F 21.9 °F 93% 30.48 in 10.0 mi NE 3.5 mph - N/A   Clear
6:35 AM 26.2 °F - 24.4 °F 93% 30.48 in 10.0 mi Calm Calm - N/A   Clear
6:55 AM 30.4 °F - 21.6 °F 70% 30.49 in 10.0 mi Calm Calm - N/A   Clear
7:15 AM 26.2 °F - 22.1 °F 84% 30.49 in 10.0 mi Calm Calm - N/A   Clear
7:55 AM 30.0 °F 25.2 °F 22.3 °F 73% 30.48 in 10.0 mi East 4.6 mph - N/A   Clear
8:15 AM 31.5 °F 28.1 °F 22.6 °F 70% 30.50 in 10.0 mi East 3.5 mph - N/A   Clear
8:55 AM 34.9 °F 27.7 °F 25.2 °F 68% 30.48 in 10.0 mi East 9.2 mph - N/A   Clear
9:15 AM 35.8 °F 29.4 °F 24.6 °F 64% 30.50 in 10.0 mi ESE 8.1 mph - N/A   Clear
9:35 AM 36.1 °F 29.3 °F 23.9 °F 61% 30.50 in 10.0 mi East 9.2 mph - N/A   Clear
10:15 AM 38.1 °F 31.2 °F 23.5 °F 56% 30.51 in 10.0 mi East 10.4 mph - N/A   Clear
10:35 AM 39.9 °F 33.9 °F 23.5 °F 52% 30.50 in 10.0 mi East 9.2 mph - N/A   Clear
10:55 AM 41.7 °F 36.1 °F 23.5 °F 49% 30.49 in 10.0 mi East 9.2 mph - N/A   Clear
11:15 AM 41.5 °F 35.4 °F 21.7 °F 45% 30.48 in 10.0 mi ESE 10.4 mph 16.1 mph N/A   Clear
11:35 AM 41.9 °F 37.5 °F 22.8 °F 47% 30.47 in 10.0 mi East 6.9 mph - N/A   Clear
11:55 AM 43.3 °F 39.2 °F 22.6 °F 44% 30.44 in 10.0 mi East 6.9 mph - N/A   Clear
12:15 PM 44.8 °F 42.4 °F 22.5 °F 41% 30.45 in 10.0 mi East 4.6 mph - N/A   Clear
12:35 PM 43.9 °F 40.5 °F 21.6 °F 41% 30.43 in 10.0 mi SE 5.8 mph - N/A   Clear
12:55 PM 43.9 °F 39.9 °F 21.9 °F 42% 30.43 in 10.0 mi ESE 6.9 mph - N/A   Clear
1:15 PM 43.7 °F 39.7 °F 21.4 °F 41% 30.41 in 10.0 mi SE 6.9 mph - N/A   Clear
1:35 PM 46.0 °F 43.1 °F 22.1 °F 39% 30.40 in 10.0 mi SSE 5.8 mph - N/A   Clear
2:15 PM 46.4 °F 44.3 °F 23.0 °F 40% 30.39 in 10.0 mi SSE 4.6 mph - N/A   Clear
2:35 PM 45.9 °F 42.3 °F 23.0 °F 41% 30.38 in 10.0 mi SSE 6.9 mph - N/A   Clear
2:55 PM 45.9 °F 42.3 °F 22.3 °F 39% 30.38 in 10.0 mi SSE 6.9 mph - N/A   Clear
3:15 PM 45.7 °F 42.0 °F 23.0 °F 41% 30.39 in 10.0 mi SSE 6.9 mph - N/A   Clear
3:35 PM 45.5 °F 43.2 °F 23.5 °F 42% 30.38 in 10.0 mi SSE 4.6 mph - N/A   Clear
3:55 PM 45.5 °F 43.2 °F 23.7 °F 42% 30.37 in 10.0 mi SSE 4.6 mph - N/A   Mostly Cloudy
4:15 PM 45.5 °F 43.2 °F 24.3 °F 43% 30.36 in 10.0 mi SE 4.6 mph - N/A   Overcast
4:35 PM 45.5 °F 42.5 °F 23.9 °F 43% 30.36 in 10.0 mi SE 5.8 mph - N/A   Overcast
4:55 PM 45.0 °F 41.2 °F 25.2 °F 46% 30.35 in 10.0 mi SE 6.9 mph - N/A   Light Drizzle
5:15 PM 43.9 °F 40.5 °F 27.9 °F 53% 30.33 in 10.0 mi ESE 5.8 mph - N/A   Light Drizzle
5:35 PM 44.1 °F 40.8 °F 26.8 °F 51% 30.32 in 10.0 mi SE 5.8 mph - N/A   Scattered Clouds
5:55 PM 43.9 °F 41.3 °F 26.6 °F 51% 30.33 in 10.0 mi SE 4.6 mph - N/A   Clear
6:15 PM 43.9 °F 42.3 °F 26.4 °F 50% 30.35 in 10.0 mi SSE 3.5 mph - N/A   Clear
6:35 PM 43.5 °F 40.9 °F 27.1 °F 53% 30.33 in 10.0 mi ESE 4.6 mph - N/A   Clear
6:55 PM 43.3 °F 40.7 °F 27.1 °F 53% 30.32 in 10.0 mi ESE 4.6 mph - N/A   Clear
7:15 PM 43.3 °F 41.7 °F 27.1 °F 53% 30.32 in 10.0 mi ESE 3.5 mph - N/A   Clear
7:35 PM 42.8 °F 41.1 °F 27.3 °F 54% 30.32 in 10.0 mi SE 3.5 mph - N/A   Clear
7:55 PM 42.4 °F 39.6 °F 27.7 °F 56% 30.32 in 10.0 mi SE 4.6 mph - N/A   Clear
8:15 PM 42.1 °F 39.2 °F 27.5 °F 56% 30.31 in 10.0 mi ESE 4.6 mph - N/A   Clear
8:35 PM 42.1 °F 39.2 °F 27.5 °F 56% 30.30 in 10.0 mi SE 4.6 mph - N/A   Clear
8:55 PM 42.1 °F 37.7 °F 27.0 °F 55% 30.29 in 10.0 mi ESE 6.9 mph - N/A   Clear
9:15 PM 42.1 °F 37.7 °F 26.4 °F 54% 30.30 in 10.0 mi ESE 6.9 mph - N/A   Clear
10:15 PM 41.2 °F 37.3 °F 26.4 °F 56% 30.29 in 10.0 mi ESE 5.8 mph - N/A   Clear
10:35 PM 40.8 °F 36.2 °F 26.6 °F 57% 30.28 in 10.0 mi ESE 6.9 mph - N/A   Clear
10:55 PM 40.6 °F 35.4 °F 26.6 °F 57% 30.29 in 10.0 mi ESE 8.1 mph - N/A   Clear
11:15 PM 41.4 °F 37.6 °F 27.0 °F 57% 30.29 in 10.0 mi ESE 5.8 mph - N/A   Mostly Cloudy
11:35 PM 42.1 °F 38.4 °F 27.0 °F 55% 30.29 in 10.0 mi ESE 5.8 mph - N/A   Overcast
11:55 PM 42.3 °F 37.3 °F 27.1 °F 55% 30.29 in 10.0 mi ESE 8.1 mph - N/A   Overcast